Regional Weather Roundup
Issued by NWS

Home | Current Version | Previous Version | Graphics & Text | Print | Product List | Glossary On
Versions: 1 2 3 4 5 6 7 8 9 10 11 12 13 14 15 16 17 18 19 20 21 22 23 24 25 26 27 28 29 30 31 32 33 34 35 36 37 38 39 40 41 42 43 44 45 46 47 48 49 50
143
ASUS43 KDMX 120608
RWRIA

WEATHER ROUNDUP FOR IOWA
NATIONAL WEATHER SERVICE DES MOINES IA
1200 AM CST FRI FEB 12 2016

NOTE: "FAIR" INDICATES FEW OR NO CLOUDS BELOW 12,000 FEET WITH NO
SIGNIFICANT WEATHER AND/OR OBSTRUCTIONS TO VISIBILITY.

* - THESE STATIONS ARE NOT NWS STATIONS...THUS NOT UNDER NWS
QUALITY CONTROL.  THEY ALSO DO NOT REPORT WEATHER SUCH
AS PRECIPITATION OR FOG.

IAZ001>003-012>014-020>022-031>034-043>046-120700-
   NORTHWEST IOWA

CITY           SKY/WX    TMP DP  RH WIND       PRES   REMARKS
CARROLL *      CLOUDY    16  14  93 CALM      30.22S
CHEROKEE *     PTCLDY    14  12  95 CALM      30.24R
DENISON *      CLOUDY    16  14  93 CALM      30.21R
LE MARS *      CLOUDY    14  14 100 N3        30.27R
ORANGE CITY *  CLEAR     10  10 100 CALM      30.23R
SHELDON *      CLOUDY     9   7  92 NW6       30.23R WCI  -1
SIOUX CITY     CLOUDY    20  15  81 NW5       30.26R WCI  13
6HR MIN TEMP:  19; 6HR MAX TEMP:  20; 6HR PCP:  0.06;

SPENCER        CLOUDY    11   7  84 NW7       30.23R WCI   0
6HR MIN TEMP:   6; 6HR MAX TEMP:  14; 6HR PCP: TRACE;

STORM LAKE *   CLOUDY    14  14 100 W5        30.21R WCI   6
$$

IAZ055>058-069>071-079>083-090>094-120700-
   SOUTHWEST IOWA

CITY           SKY/WX    TMP DP  RH WIND       PRES   REMARKS
ATLANTIC *     CLOUDY    21  18  86 CALM      30.21F
AUDUBON *      MOCLDY    18  16  93 CALM      30.21S
CLARINDA *     CLOUDY    28  18  64 CALM      30.23S
COUNCIL BLFS * CLOUDY    23  21  93 N6        30.21S WCI  16
CRESTON *      CLOUDY    21  18  86 E7        30.22S WCI  13
HARLAN  *      CLOUDY    21  18  86 CALM      30.25S
LAMONI         CLOUDY    21  17  84 E3        30.21S
6HR MIN TEMP:  21; 6HR MAX TEMP:  26; 6HR PCP:  0.01;

RED OAK *      CLOUDY    25  21  86 NE5       30.22S WCI  19
SHENANDOAH *   CLOUDY    30  23  74 E3        30.23S
$$

IAZ047>049-059>061-072>074-084-120700-
   CENTRAL IOWA

CITY           SKY/WX    TMP DP  RH WIND       PRES   REMARKS
AMES           CLOUDY    15  13  91 S3        30.23F
6HR MIN TEMP:  12; 6HR MAX TEMP:  18; 6HR PCP: TRACE;

ANKENY *       CLOUDY    16  16 100 CALM      30.24F
BOONE *        CLOUDY    16  14  93 S5        30.20F WCI   9
CHARITON *     CLOUDY    19  18  93 CALM      30.23S
DES MOINES     CLOUDY    19  15  84 SE5       30.23F WCI  12
6HR MIN TEMP:  18; 6HR MAX TEMP:  19; 6HR PCP:  0.06;

GRINNELL*      CLOUDY    18  16  93 CALM      30.23S
KNOXVILLE *    CLOUDY    18  16  93 CALM      30.23S
MARSHALLTOWN   CLOUDY    16  14  92 CALM      30.22F
6HR MIN TEMP:  13; 6HR MAX TEMP:  18; 6HR PCP: TRACE;

NEWTON *       CLOUDY    16  16 100 CALM      30.23S
PELLA *        MOCLDY    18  16  95 CALM      30.26S
$$

IAZ004>006-015-016-023>025-035-036-120700-
   NORTH CENTRAL IOWA

CITY           SKY/WX    TMP DP  RH WIND       PRES   REMARKS
ALGONA *       CLOUDY    14  12  92 W10       30.21S WCI   1
CLARION *      CLOUDY    12   9  85 CALM      30.22S
ESTHERVILLE    CLOUDY    12   9  87 W9        30.21S WCI   0
6HR MIN TEMP:   7; 6HR MAX TEMP:  13; 6HR PCP: TRACE;

FORT DODGE *   CLOUDY    16  10  79 CALM      30.23S
MASON CITY     CLOUDY    12   8  84 W7        30.22S WCI   1
6HR MIN TEMP:   6; 6HR MAX TEMP:  12;

FOREST CITY *  CLOUDY    12  10  92 W3        30.21S
WEBSTER CITY * CLOUDY    16  12  86 W5        30.21R WCI   9
IOWA FALLS *   CLOUDY    16  12  86 CALM      30.22S
$$

IAZ007>011-017>019-026>030-037>042-050>054-066-120700-
   NORTHEAST IOWA

CITY           SKY/WX    TMP DP  RH WIND       PRES   REMARKS
CEDAR RAPIDS   CLEAR     17  13  84 SW5       30.23F WCI  10
6HR MIN TEMP:  17; 6HR MAX TEMP:  21;

CHARLES CITY * CLOUDY    12   5  73 SW6       30.21F WCI   3
CLINTON *      CLEAR     13   8  81 CALM      30.25F
DECORAH *      CLOUDY    12   3  67 CALM      30.19F
DUBUQUE        CLEAR     11   5  77 SW5       30.20F WCI   3
6HR MIN TEMP:  11; 6HR MAX TEMP:  16;

MONTICELLO *   CLOUDY    12   7  79 CALM      30.23F
OELWEIN *      CLOUDY    12   5  73 SW3       30.22F
WATERLOO       CLOUDY    10   5  80 CALM      30.23F
6HR MIN TEMP:   6; 6HR MAX TEMP:  15;

$$

IAZ064-065-067-068-078-120700-
   EAST CENTRAL IOWA

CITY           SKY/WX    TMP DP  RH WIND       PRES   REMARKS
DAVENPORT      CLOUDY    19  12  74 CALM      30.24F
6HR MIN TEMP:  19; 6HR MAX TEMP:  21;

IOWA CITY      CLOUDY    19  16  88 W3        30.27F
6HR MIN TEMP:  19; 6HR MAX TEMP:  22; 6HR PCP: TRACE;

MT. PLEASANT * LGT SNOW  23  19  87 CALM      30.25F
MUSCATINE *    CLOUDY    21  18  86 SW5       30.27F WCI  15
QUAD CITIES    CLOUDY    22  12  65 SW3       30.25F
6HR MIN TEMP:  21; 6HR MAX TEMP:  22;

$$

IAZ062-063-075>077-085>089-095>099-120700-
   SOUTHEAST IOWA

CITY           SKY/WX    TMP DP  RH WIND       PRES   REMARKS
BURLINGTON     LGT SNOW  21  19  92 W5        30.25S FOG     WCI  15
6HR MIN TEMP:  21; 6HR MAX TEMP:  23; 6HR PCP: TRACE;

FAIRFIELD *    CLOUDY    19  16  86 CALM      30.24F
FORT MADISON * LGT SNOW  19  18  93 CALM      30.25F
KEOKUK *       LGT SNOW  21  19  93 CALM      30.24F
OSKALOOSA *    FLURRIES  19  17  93 CALM      30.25S
CENTERVILLE *  FLURRIES  19  18  93 CALM      30.24S
OTTUMWA        CLOUDY    19  17  92 CALM      30.24F
6HR MIN TEMP:  19; 6HR MAX TEMP:  23; 6HR PCP: TRACE;

WASHINGTON *   LGT SNOW  19  18  93 SW5       30.26F WCI  13
$$

ABBREVIATIONS USED IN REMARKS
   TC - TEMPERATURES IN CELSIUS
  WCI - WIND CHILL INDEX
   HX - HEAT INDEX
  VSB - VISIBILITY
$$





USA.gov is the U.S. government's official web portal to all federal, state and local government web resources and services.